This demonstration page uses our WeatherBlox Daily Observations layout. Learn more.

Left ArrowRight Arrow

39.51506, -84.39828

Hourly Observations for January 12, 2015

Temp ( °F °C ) Dew Point ( °F °C ) Humidity (%) Winds ( mph kmh ) Pressure ( in mb ) Visibility ( mi km ) Precip ( " mm )
12:15 am 00:15 Cloudy 37 2.6 33 0.3 85 85 SSW 5 7 30.33 1027 7 11 0.00 0.00
12:35 am 00:35 Cloudy with Light Snow 37 2.6 33 0.3 85 85 SSW 7 11 30.33 1027 5 8 0.00 0.00
12:55 am 00:55 Cloudy with Light Snow 37 2.6 33 0.3 85 85 SSW 8 13 30.30 1026 5 8 0.00 0.00
1:15 am 01:15 Cloudy with Light Snow 37 2.6 33 0.3 85 85 SSW 5 7 30.30 1026 5 8 0.00 0.00
1:35 am 01:35 Cloudy with Light Snow 36 2.4 33 0.3 86 86 SSW 3 6 30.30 1026 4 6 0.00 0.00
1:55 am 01:55 Cloudy with Light Snow 37 2.5 33 0.5 87 87 SSW 3 6 30.30 1026 5 8 0.00 0.00
2:15 am 02:15 Cloudy with Light Snow 36 2.3 33 0.3 87 87 SSW 6 9 30.30 1026 4 6 0.00 0.00
2:35 am 02:35 Cloudy with Light Snow 36 2 32 0 87 87 SSW 5 7 30.30 1026 5 8 0.00 0.00
2:55 am 02:55 Cloudy with Mist and Fog 36 2.2 33 0.3 87 87 SSW 3 6 30.30 1026 5 8 0.00 0.00
3:15 am 03:15 Cloudy with Mist and Fog 36 2 32 0.1 87 87 SW 5 7 30.30 1026 5 8 0.00 0.00
3:35 am 03:35 Cloudy with Mist and Fog 36 2 32 0.1 87 87 SW 5 7 30.30 1026 4 6 0.00 0.00
3:55 am 03:55 Cloudy with Mist and Fog 36 2 32 0.1 87 87 SSW 5 7 30.30 1026 3 5 0.00 0.00
4:15 am 04:15 Cloudy with Mist and Fog 35 1.8 32 0 88 88 SW 3 6 30.27 1025 4 6 0.00 0.00
4:35 am 04:35 Cloudy with Mist and Fog 36 2 32 0.1 87 87 SW 3 6 30.27 1025 3 5 0.00 0.00
4:55 am 04:55 Cloudy with Light Snow 35 1.5 32 0 90 90 Calm 30.27 1025 2 3 0.00 0.00
5:15 am 05:15 Cloudy with Light Snow 36 2 32 0.2 88 88 Calm 30.27 1025 3 4 0.00 0.00
5:35 am 05:35 Cloudy with Mist and Fog 35 1.5 32 0 90 90 Calm 30.27 1025 3 4 0.00 0.00
5:55 am 05:55 Cloudy with Mist and Fog 36 2 32 0.2 88 88 Calm 30.27 1025 2 2 0.00 0.00
6:15 am 06:15 Cloudy with Mist and Fog 35 1.6 32 0 89 89 Calm 30.27 1025 1 2 0.00 0.00
6:35 am 06:35 Cloudy with Mist and Fog 34 1.2 32 -0.2 91 91 Calm 30.27 1025 1 1 0.00 0.00
6:55 am 06:55 Cloudy with Mist and Fog 34 1.2 32 -0.2 91 91 Calm 30.27 1025 1 1 0.00 0.00
7:15 am 07:15 Cloudy with Mist and Fog 34 1.2 32 -0.2 91 91 Calm 30.27 1025 1 1 0.00 0.00
7:35 am 07:35 Cloudy with Mist and Fog 34 1.2 32 -0.2 91 91 Calm 30.27 1025 1 1 0.00 0.00
7:55 am 07:55 Cloudy with Mist and Fog 34 1.2 32 -0.2 91 91 Calm 30.27 1025 1 1 0.00 0.00
8:15 am 08:15 Cloudy with Fog 34 1.2 32 -0.2 91 91 Calm 30.27 1025 1 1 0.00 0.00
8:35 am 08:35 Cloudy with Fog 34 1.2 32 -0.1 91 91 Calm 30.27 1025 1 1 0.00 0.00
8:55 am 08:55 Cloudy with Mist and Fog 35 1.5 32 0 90 90 Calm 30.27 1025 1 1 0.00 0.00
9:15 am 09:15 Cloudy with Fog 35 1.4 32 0 91 91 Calm 30.30 1026 1 1 0.00 0.00
9:35 am 09:35 Cloudy with Light Snow 34 1.2 32 -0.1 91 91 Calm 30.30 1026 1 1 0.00 0.00
9:55 am 09:55 Cloudy with Light Snow 36 2 33 0.3 89 89 Calm 30.30 1026 0 0 0.00 0.00
10:15 am 10:15 Cloudy with Light Snow 37 2.5 34 0.9 89 89 Calm 30.30 1026 1 1 0.00 0.00
10:35 am 10:35 Cloudy with Light Snow 37 2.6 34 1.1 90 90 Calm 30.30 1026 1 1 0.00 0.00
10:55 am 10:55 Cloudy with Mist and Fog 37 2.6 34 1.1 90 90 Calm 30.30 1026 2 2 0.00 0.00
11:15 am 11:15 Cloudy 37 2.6 34 1 89 89 N 7 11 30.30 1026 7 11 0.00 0.00
11:35 am 11:35 Cloudy 37 2.6 34 1 89 89 N 8 13 30.30 1026 7 11 0.00 0.00
11:55 am 11:55 Cloudy 37 2.6 34 1 89 89 NNE 7 11 30.30 1026 10 16 0.00 0.00
12:15 pm 12:15 Cloudy 37 2.6 34 1 89 89 NNE 9 15 30.30 1026 10 16 0.00 0.00
12:35 pm 12:35 Cloudy 37 2.6 34 1 89 89 N 8 13 30.30 1026 10 16 0.00 0.00
12:55 pm 12:55 Cloudy 37 2.6 33 0.8 88 88 N 9 15 30.30 1026 10 16 0.00 0.00
1:15 pm 13:15 Cloudy 37 2.6 33 0.7 87 87 N 13 20 30.30 1026 10 16 0.00 0.00
1:35 pm 13:35 Cloudy 36 2 32 0 87 87 N 7 11 30.30 1026 10 16 0.00 0.00
1:55 pm 13:55 Cloudy 37 2.6 32 0.2 84 84 N 10 17 30.30 1026 10 16 0.00 0.00
2:15 pm 14:15 Cloudy 37 2.6 32 0 83 83 N 7 11 30.30 1026 10 16 0.00 0.00
2:35 pm 14:35 Cloudy 37 2.6 32 0 83 83 N 10 17 30.33 1027 10 16 0.00 0.00
2:55 pm 14:55 Cloudy 35 1.7 30 -1 82 82 N 10 17 30.33 1027 10 16 0.00 0.00
3:15 pm 15:15 Cloudy 34 1.2 29 -1.5 82 82 N 13 20 30.33 1027 7 11 0.00 0.00
3:35 pm 15:35 Cloudy 34 1.2 29 -1.6 82 82 N 12 19 30.36 1028 10 16 0.00 0.00
3:55 pm 15:55 Cloudy 34 1.2 28 -2 79 79 N 8 13 30.36 1028 10 16 0.00 0.00
4:15 pm 16:15 Cloudy 34 1.2 29 -1.8 81 81 N 8 13 30.36 1028 7 11 0.00 0.00
4:35 pm 16:35 Cloudy 34 1.2 28 -2.2 78 78 N 15 24 30.39 1029 10 16 0.00 0.00
4:55 pm 16:55 Cloudy 34 1.2 28 -2 79 79 N 14 22 30.39 1029 7 11 0.00 0.00
5:15 pm 17:15 Cloudy 34 1.2 28 -2.5 77 77 N 10 17 30.42 1030 7 11 0.00 0.00
5:35 pm 17:35 Cloudy 34 1.2 27 -2.6 76 76 N 10 17 30.42 1030 10 16 0.00 0.00
5:55 pm 17:55 Cloudy 34 1.2 27 -2.6 76 76 N 12 19 30.42 1030 10 16 0.00 0.00
6:15 pm 18:15 Cloudy 34 1.2 27 -3 74 74 N 10 17 30.45 1031 10 16 0.00 0.00
6:35 pm 18:35 Cloudy 34 1.2 26 -3.1 73 73 N 9 15 30.45 1031 10 16 0.00 0.00
6:55 pm 18:55 Cloudy 34 1.2 26 -3.3 72 72 NNE 13 20 30.45 1031 10 16 0.00 0.00
7:15 pm 19:15 Cloudy 34 1.2 25 -4 69 69 NNE 12 19 30.48 1032 10 16 0.00 0.00
7:35 pm 19:35 Cloudy 34 1.2 25 -4 69 69 NE 13 20 30.48 1032 10 16 0.00 0.00
7:55 pm 19:55 Cloudy 34 1.2 26 -3.6 71 71 N 14 22 30.48 1032 10 16 0.00 0.00
8:15 pm 20:15 Cloudy 32 0 23 -4.9 70 70 NE 15 24 30.48 1032 10 16 0.00 0.00
8:35 pm 20:35 Cloudy 32 0 23 -5.2 68 68 NNE 13 20 30.50 1033 10 16 0.00 0.00
8:55 pm 20:55 Cloudy 32 0 23 -5.2 68 68 N 15 24 30.50 1033 10 16 0.00 0.00
9:15 pm 21:15 Cloudy 31 -0.8 22 -5.5 71 71 NNE 14 22 30.53 1034 10 16 0.00 0.00
9:35 pm 21:35 Cloudy 29 -1.5 21 -6.2 71 71 NNE 13 20 30.53 1034 10 16 0.00 0.00
9:55 pm 21:55 Cloudy 29 -1.5 21 -6 72 72 NNE 13 20 30.53 1034 10 16 0.00 0.00
10:15 pm 22:15 Cloudy 29 -1.5 21 -6.1 71 71 N 16 26 30.53 1034 10 16 0.00 0.00
10:35 pm 22:35 Cloudy 29 -1.5 21 -6.2 71 71 NNE 17 28 30.56 1035 10 16 0.00 0.00
10:55 pm 22:55 Cloudy 29 -1.5 20 -6.5 69 69 NNE 15 24 30.56 1035 10 16 0.00 0.00
11:15 pm 23:15 Cloudy 29 -1.5 20 -6.7 68 68 NE 14 22 30.56 1035 10 16 0.00 0.00
11:35 pm 23:35 Cloudy 29 -1.5 20 -6.7 68 68 NNE 14 22 30.56 1035 10 16 0.00 0.00
11:55 pm 23:55 Cloudy 29 -1.7 19 -7 67 67 NNE 12 19 30.56 1035 10 16 0.00 0.00

Powered by AerisWeather